EW6810 Weather Reports


Display with metric or nautical units.
time (UTC)temp
F
wind
direction
speed
MPH
gust
MPH
rain 1hr
in
rain 24hr
in
rain mn
in
humidity
%
barometer
mb
20260906101042 53 337 1.0 3.0 0.00 0.00 0.00 87 1013.7
20260906100545 53 336 0.0 2.0 0.00 0.00 0.00 87 1013.7
20260906100041 53 337 1.0 3.0 0.00 0.00 0.00 87 1013.7
20260906095540 53 333 0.0 2.0 0.00 0.00 0.00 87 1013.7
20260906095039 53 33 1.0 3.0 0.00 0.00 0.00 87 1013.7
20260906094539 53 33 1.0 3.0 0.00 0.00 0.00 86 1013.7
20260906094041 53 35 0.0 2.0 0.00 0.00 0.00 86 1013.7
20260906093537 53 35 0.0 2.0 0.00 0.00 0.00 86 1013.7
20260906093042 53 35 0.0 2.0 0.00 0.00 0.00 85 1013.8
20260906092535 53 35 0.0 3.0 0.00 0.00 0.00 85 1013.8
20260906092035 54 35 0.0 3.0 0.00 0.00 0.00 85 1013.9
20260906091535 54 5 1.0 3.0 0.00 0.00 0.00 85 1013.9
20260906091034 54 25 0.0 3.0 0.00 0.00 0.00 84 1014.0
20260906090533 54 360 1.0 3.0 0.00 0.00 0.00 84 1014.0
20260906090034 54 306 0.0 3.0 0.00 0.00 0.00 84 1014.0
20260906085533 55 306 0.0 6.0 0.00 0.00 0.00 84 1014.1
20260906085033 54 304 2.0 6.0 0.00 0.00 0.00 85 1014.1
20260906084533 54 270 1.0 6.0 0.00 0.00 0.00 85 1014.1
20260906084036 54 286 2.0 6.0 0.00 0.00 0.00 86 1014.0
20260906083534 54 337 1.0 5.0 0.00 0.00 0.00 86 1014.1
20260906083032 54 349 2.0 5.0 0.00 0.00 0.00 86 1014.0
20260906082531 54 73 1.0 3.0 0.00 0.00 0.00 86 1014.1
20260906082031 54 61 0.0 4.0 0.00 0.00 0.00 86 1014.0
20260906081531 54 308 0.0 7.0 0.00 0.00 0.00 85 1013.9
20260906081032 54 323 0.0 7.0 0.00 0.00 0.00 85 1013.9
20260906080534 54 286 1.0 7.0 0.00 0.00 0.00 85 1014.0
20260906080030 54 268 2.0 7.0 0.00 0.00 0.00 86 1014.0
20260906075529 54 319 2.0 4.0 0.00 0.00 0.00 86 1014.0
20260906075029 54 327 1.0 4.0 0.00 0.00 0.00 86 1014.0
20260906074528 54 347 1.0 4.0 0.00 0.00 0.00 86 1014.0
20260906074028 54 354 0.0 3.0 0.00 0.00 0.00 86 1014.0
20260906073527 55 354 1.0 3.0 0.00 0.00 0.00 86 1014.0
20260906073026 55 96 0.0 6.0 0.00 0.00 0.00 86 1014.1
20260906072527 54 15 1.0 6.0 0.00 0.00 0.00 86 1014.1
20260906072029 55 213 1.0 6.0 0.00 0.00 0.00 86 1014.1
20260906071525 55 21 0.0 3.0 0.00 0.00 0.00 86 1014.1
20260906071025 55 11 1.0 3.0 0.00 0.00 0.00 85 1014.2
20260906070524 55 330 1.0 6.0 0.00 0.00 0.00 85 1014.3
20260906070023 55 17 2.0 6.0 0.00 0.00 0.00 86 1014.3
20260906065524 55 309 2.0 4.0 0.00 0.00 0.00 86 1014.3
20260906065023 55 54 1.0 2.0 0.00 0.00 0.00 86 1014.3
20260906064533 55 54 0.0 4.0 0.00 0.00 0.00 86 1014.3
20260906064024 55 56 1.0 5.0 0.00 0.00 0.00 86 1014.3
20260906063522 55 289 1.0 5.0 0.00 0.00 0.00 86 1014.2
20260906063022 55 290 0.0 5.0 0.00 0.00 0.00 86 1014.2
20260906062521 55 296 1.0 5.0 0.00 0.00 0.00 86 1014.2
20260906062022 55 248 1.0 3.0 0.00 0.00 0.00 86 1014.2
20260906061525 55 10 0.0 3.0 0.00 0.00 0.00 86 1014.2
20260906061021 55 11 1.0 3.0 0.00 0.00 0.00 86 1014.2
20260906060524 55 317 1.0 3.0 0.00 0.00 0.00 87 1014.1
20260906060021 55 259 1.0 3.0 0.00 0.00 0.00 87 1014.2
20260906055522 55 325 0.0 5.0 0.00 0.00 0.00 87 1014.2
20260906055021 55 346 1.0 5.0 0.00 0.00 0.00 87 1014.2
20260906054532 55 23 0.0 3.0 0.00 0.00 0.00 87 1014.2
20260906054022 55 262 0.0 3.0 0.00 0.00 0.00 86 1014.2
20260906053523 55 262 0.0 3.0 0.00 0.00 0.00 86 1014.2
20260906053019 56 348 1.0 2.0 0.00 0.00 0.00 86 1014.2
20260906052519 56 290 0.0 3.0 0.00 0.00 0.00 86 1014.2
20260906052019 56 286 0.0 3.0 0.00 0.00 0.00 86 1014.2
20260906051518 56 258 0.0 2.0 0.00 0.00 0.00 85 1014.3
20260906051020 56 250 0.0 2.0 0.00 0.00 0.00 86 1014.3
20260906050524 56 253 0.0 2.0 0.00 0.00 0.00 86 1014.3
20260906050018 56 253 0.0 3.0 0.00 0.00 0.00 86 1014.3
20260906045521 56 121 1.0 3.0 0.00 0.00 0.00 86 1014.4
20260906045018 56 73 0.0 7.0 0.00 0.00 0.00 86 1014.3
20260906044518 56 316 0.0 7.0 0.00 0.00 0.00 86 1014.3
20260906044018 56 307 0.0 4.0 0.00 0.00 0.00 86 1014.3
20260906043517 57 247 0.0 4.0 0.00 0.00 0.00 86 1014.4
20260906043023 57 277 1.0 4.0 0.00 0.00 0.00 86 1014.4
20260906042517 57 284 1.0 3.0 0.00 0.00 0.00 86 1014.4
20260906042017 57 262 1.0 7.0 0.00 0.00 0.00 86 1014.4
20260906041517 57 239 0.0 7.0 0.00 0.00 0.00 86 1014.4
20260906041019 57 298 1.0 3.0 0.00 0.00 0.00 86 1014.4
20260906040535 57 352 1.0 2.0 0.00 0.00 0.00 86 1014.4
20260906040035 57 303 0.0 2.0 0.00 0.00 0.00 85 1014.3
20260906035536 58 303 0.0 2.0 0.00 0.00 0.00 85 1014.3
20260906035035 58 303 1.0 3.0 0.00 0.00 0.00 84 1014.3
20260906034535 58 303 1.0 3.0 0.00 0.00 0.00 84 1014.2
20260906034034 58 288 0.0 2.0 0.00 0.00 0.00 83 1014.3
20260906033534 59 288 0.0 3.0 0.00 0.00 0.00 83 1014.2
20260906033037 59 286 1.0 3.0 0.00 0.00 0.00 82 1014.2
20260906032534 59 286 0.0 3.0 0.00 0.00 0.00 82 1014.1
20260906032034 59 286 0.0 3.0 0.00 0.00 0.00 83 1014.1
20260906031534 59 264 0.0 3.0 0.00 0.00 0.00 83 1014.1
20260906031033 59 256 0.0 2.0 0.00 0.00 0.00 82 1014.1
20260906030534 60 255 0.0 2.0 0.00 0.00 0.00 82 1014.1
20260906030033 60 255 0.0 2.0 0.00 0.00 0.00 82 1014.2
20260906025535 60 255 0.0 6.0 0.00 0.00 0.00 81 1014.1
20260906025033 60 253 0.0 6.0 0.00 0.00 0.00 81 1014.1
20260906024533 60 225 1.0 3.0 0.00 0.00 0.00 81 1014.1
20260906024036 60 281 0.0 3.0 0.00 0.00 0.00 81 1014.1
20260906023533 61 257 0.0 2.0 0.00 0.00 0.00 80 1014.1
20260906023034 61 257 0.0 2.0 0.00 0.00 0.00 80 1014.1
20260906022532 61 257 0.0 2.0 0.00 0.00 0.00 79 1014.1
20260906022032 62 257 0.0 2.0 0.00 0.00 0.00 78 1014.0
20260906021540 62 257 0.0 4.0 0.00 0.00 0.00 77 1014.0
20260906021031 62 257 0.0 4.0 0.00 0.00 0.00 77 1014.0
20260906020532 62 221 0.0 5.0 0.00 0.00 0.00 76 1014.0
20260906020032 63 204 1.0 4.0 0.00 0.00 0.00 76 1014.0
20260906015531 63 173 1.0 3.0 0.00 0.00 0.00 75 1014.0
20260906015031 63 329 0.0 4.0 0.00 0.00 0.00 74 1013.9
20260906014536 64 328 1.0 4.0 0.00 0.00 0.00 73 1013.8
20260906014031 64 268 0.0 5.0 0.00 0.00 0.00 72 1013.8
20260906013532 64 302 0.0 4.0 0.00 0.00 0.00 71 1013.8
20260906013040 65 302 1.0 5.0 0.00 0.00 0.00 70 1013.7
20260906012532 65 308 1.0 5.0 0.00 0.00 0.00 71 1013.6
20260906012030 65 282 0.0 5.0 0.00 0.00 0.00 69 1013.5
20260906011534 66 176 1.0 4.0 0.00 0.00 0.00 67 1013.3
20260906011030 66 194 0.0 2.0 0.00 0.00 0.00 66 1013.3
20260906010532 66 194 0.0 2.0 0.00 0.00 0.00 64 1013.3
20260906010029 67 194 0.0 2.0 0.00 0.00 0.00 62 1013.3
20260906005527 67 194 0.0 3.0 0.00 0.00 0.00 63 1013.3
20260906005026 68 195 1.0 3.0 0.00 0.00 0.00 60 1013.2
20260906004525 67 171 0.0 3.0 0.00 0.00 0.00 62 1013.2
20260906004025 67 171 0.0 3.0 0.00 0.00 0.00 62 1013.3
20260906003521 68 234 0.0 4.0 0.00 0.00 0.00 60 1013.3
20260906003022 68 251 1.0 3.0 0.00 0.00 0.00 59 1013.3
20260906002518 68 101 0.0 4.0 0.00 0.00 0.00 60 1013.3
20260906002017 68 101 1.0 4.0 0.00 0.00 0.00 60 1013.3
20260906001516 69 122 1.0 3.0 0.00 0.00 0.00 58 1013.3
20260906001014 69 101 0.0 3.0 0.00 0.00 0.00 60 1013.3
20260906000512 68 90 0.0 2.0 0.00 0.00 0.00 58 1013.3
20260906000011 68 72 1.0 3.0 0.00 0.00 0.00 58 1013.2
20260905235509 68 186 1.0 3.0 0.00 0.00 0.00 58 1013.3
20260905235009 68 177 0.0 6.0 0.00 0.00 0.00 58 1013.3
20260905234509 68 165 1.0 6.0 0.00 0.00 0.00 56 1013.3
20260905234008 69 140 0.0 3.0 0.00 0.00 0.00 60 1013.3
20260905233508 69 143 0.0 2.0 0.00 0.00 0.00 61 1013.3
20260905233009 69 143 0.0 4.0 0.00 0.00 0.00 61 1013.4
20260905232509 69 143 2.0 4.0 0.00 0.00 0.00 59 1013.4
20260905232007 69 144 1.0 4.0 0.00 0.00 0.00 62 1013.4
20260905231507 69 134 0.0 3.0 0.00 0.00 0.00 61 1013.5
20260905231006 69 133 1.0 3.0 0.00 0.00 0.00 59 1013.5
20260905230506 70 179 0.0 5.0 0.00 0.00 0.00 57 1013.4
20260905230008 71 184 1.0 5.0 0.00 0.00 0.00 57 1013.4
20260905225506 71 27 1.0 3.0 0.00 0.00 0.00 57 1013.4
20260905225006 71 157 1.0 4.0 0.00 0.00 0.00 58 1013.3
20260905224513 70 140 1.0 4.0 0.00 0.00 0.00 59 1013.4
20260905224004 70 89 0.0 5.0 0.00 0.00 0.00 59 1013.3
20260905223507 70 101 2.0 5.0 0.00 0.00 0.00 58 1013.4
20260905223003 70 163 2.0 5.0 0.00 0.00 0.00 61 1013.4
20260905222502 70 86 1.0 4.0 0.00 0.00 0.00 61 1013.4
20260905222001 69 89 1.0 5.0 0.00 0.00 0.00 63 1013.4
20260905221501 69 163 1.0 4.0 0.00 0.00 0.00 62 1013.5
20260905221001 69 111 1.0 7.0 0.00 0.00 0.00 61 1013.5
20260905220501 69 90 1.0 7.0 0.00 0.00 0.00 63 1013.4
20260905220100 69 123 1.0 5.0 0.00 0.00 0.00 62 1013.5
20260905215600 69 156 2.0 6.0 0.00 0.00 0.00 63 1013.6
20260905215100 70 148 1.0 3.0 0.00 0.00 0.00 63 1013.6
20260905214559 70 139 1.0 4.0 0.00 0.00 0.00 62 1013.7
20260905214101 68 86 1.0 7.0 0.00 0.00 0.00 63 1013.6
20260905213559 68 182 2.0 7.0 0.00 0.00 0.00 61 1013.6
20260905213100 68 130 1.0 5.0 0.00 0.00 0.00 63 1013.7
20260905212602 68 106 1.0 9.0 0.00 0.00 0.00 61 1013.7
20260905212057 68 61 2.0 9.0 0.00 0.00 0.00 62 1013.8
20260905211608 69 173 1.0 8.0 0.00 0.00 0.00 60 1013.8
20260905211056 70 150 1.0 5.0 0.00 0.00 0.00 59 1013.9
20260905210556 70 124 1.0 5.0 0.00 0.00 0.00 61 1014.0
20260905210108 69 148 1.0 4.0 0.00 0.00 0.00 61 1014.0
20260905205554 68 207 1.0 5.0 0.00 0.00 0.00 63 1014.0
20260905205053 67 172 1.0 8.0 0.00 0.00 0.00 63 1014.0
20260905204553 67 185 0.0 8.0 0.00 0.00 0.00 65 1014.1
20260905204052 68 217 2.0 4.0 0.00 0.00 0.00 62 1014.0
20260905203554 67 180 0.0 6.0 0.00 0.00 0.00 66 1014.1
20260905203051 67 132 2.0 6.0 0.00 0.00 0.00 63 1014.1
20260905202550 67 42 1.0 5.0 0.00 0.00 0.00 66 1014.1
20260905202050 66 174 1.0 7.0 0.00 0.00 0.00 65 1014.1
20260905201551 68 132 2.0 7.0 0.00 0.00 0.00 64 1014.1
20260905201050 68 166 1.0 6.0 0.00 0.00 0.00 66 1014.1
20260905200552 67 52 1.0 5.0 0.00 0.00 0.00 67 1014.2
20260905200055 67 134 1.0 5.0 0.00 0.00 0.00 66 1014.1
20260905195547 67 84 2.0 5.0 0.00 0.00 0.00 66 1014.2
20260905195047 67 287 2.0 6.0 0.00 0.00 0.00 67 1014.2
20260905194548 66 204 2.0 12.0 0.00 0.00 0.00 65 1014.2
20260905194046 66 189 1.0 12.0 0.00 0.00 0.00 66 1014.2
20260905193546 66 188 2.0 5.0 0.00 0.00 0.00 64 1014.2
20260905193050 65 148 1.0 5.0 0.00 0.00 0.00 65 1014.3
20260905192544 66 209 1.0 5.0 0.00 0.00 0.00 65 1014.4
20260905192045 65 176 1.0 6.0 0.00 0.00 0.00 68 1014.3
20260905191546 65 131 2.0 6.0 0.00 0.00 0.00 64 1014.3
20260905191044 66 171 2.0 6.0 0.00 0.00 0.00 63 1014.4
20260905190546 66 179 0.0 5.0 0.00 0.00 0.00 64 1014.4
20260905190054 65 142 1.0 7.0 0.00 0.00 0.00 66 1014.4
20260905185542 66 191 1.0 7.0 0.00 0.00 0.00 66 1014.5
20260905185041 65 134 1.0 6.0 0.00 0.00 0.00 66 1014.6
20260905184546 65 121 1.0 5.0 0.00 0.00 0.00 68 1014.6
20260905184039 64 169 2.0 5.0 0.00 0.00 0.00 68 1014.7
20260905183540 63 215 2.0 6.0 0.00 0.00 0.00 68 1014.7
20260905183038 64 132 1.0 6.0 0.00 0.00 0.00 68 1014.8
20260905182538 64 133 1.0 5.0 0.00 0.00 0.00 67 1014.8
20260905182038 64 159 1.0 6.0 0.00 0.00 0.00 69 1014.8
20260905181536 64 158 1.0 4.0 0.00 0.00 0.00 72 1014.9
20260905181036 63 194 1.0 4.0 0.00 0.00 0.00 72 1014.9
20260905180537 63 3 0.0 9.0 0.00 0.00 0.00 73 1014.8
20260905180036 64 178 1.0 9.0 0.00 0.00 0.00 73 1014.9
20260905175537 64 168 1.0 4.0 0.00 0.00 0.00 74 1014.8
20260905175035 64 173 1.0 4.0 0.00 0.00 0.00 74 1014.8
20260905174539 64 163 2.0 4.0 0.00 0.00 0.00 73 1014.7
20260905174035 63 130 0.0 4.0 0.00 0.00 0.00 74 1014.7
20260905173531 62 130 1.0 4.0 0.00 0.00 0.00 74 1014.7
20260905173029 62 200 1.0 4.0 0.00 0.00 0.00 73 1014.7
20260905172528 62 222 1.0 4.0 0.00 0.00 0.00 73 1014.7
20260905172026 62 190 0.0 3.0 0.00 0.00 0.00 74 1014.7
20260905171534 61 128 1.0 3.0 0.00 0.00 0.00 75 1014.8
20260905171024 61 128 0.0 3.0 0.00 0.00 0.00 76 1014.7
20260905170524 61 20 0.0 3.0 0.00 0.00 0.00 77 1014.7
20260905170021 60 23 0.0 3.0 0.00 0.00 0.00 78 1014.7
20260905165519 59 125 0.0 2.0 0.00 0.00 0.00 79 1014.8
20260905165019 59 125 0.0 2.0 0.00 0.00 0.00 80 1014.8
20260905164518 58 128 0.0 2.0 0.00 0.00 0.00 80 1014.8
20260905164017 58 11 0.0 2.0 0.00 0.00 0.00 81 1014.8
20260905163515 58 11 0.0 2.0 0.00 0.00 0.00 81 1014.7
20260905163014 58 11 0.0 2.0 0.00 0.00 0.00 81 1014.7
20260905162513 57 11 1.0 3.0 0.00 0.00 0.00 82 1014.8
20260905162010 57 11 2.0 3.0 0.00 0.00 0.00 84 1014.8
20260905161509 56 11 0.0 2.0 0.00 0.00 0.00 85 1014.8
20260905161008 56 11 0.0 2.0 0.00 0.00 0.00 86 1014.8
20260905160507 55 12 1.0 3.0 0.00 0.00 0.00 88 1014.8
20260905160015 54 12 1.0 3.0 0.00 0.00 0.00 90 1014.8
20260905155510 52 12 0.0 2.0 0.00 0.00 0.00 91 1014.8
20260905155004 52 12 1.0 3.0 0.00 0.00 0.00 91 1014.9
20260905154502 52 12 1.0 3.0 0.00 0.00 0.00 91 1014.8
20260905154001 52 13 1.0 4.0 0.00 0.00 0.00 91 1014.7
20260905153601 52 3 1.0 4.0 0.00 0.00 0.00 91 1014.8
20260905153110 52 31 2.0 4.0 0.00 0.00 0.00 91 1014.8
20260905152559 52 358 1.0 4.0 0.00 0.00 0.00 91 1014.7
20260905152058 52 351 1.0 4.0 0.00 0.00 0.00 91 1014.6
20260905151559 52 238 0.0 1.0 0.00 0.00 0.00 91 1014.6
20260905151057 52 238 0.0 3.0 0.00 0.00 0.00 91 1014.5
20260905150559 52 238 0.0 3.0 0.00 0.00 0.00 91 1014.5
20260905150057 52 257 0.0 2.0 0.00 0.00 0.00 91 1014.5
20260905145555 52 257 0.0 2.0 0.00 0.00 0.00 91 1014.3
20260905145055 52 257 1.0 2.0 0.00 0.00 0.00 91 1014.4
20260905144556 52 257 0.0 2.0 0.00 0.00 0.00 91 1014.4
20260905144058 52 257 0.0 2.0 0.00 0.00 0.00 91 1014.4
20260905143554 53 256 0.0 2.0 0.00 0.00 0.00 91 1014.5
20260905143054 53 346 0.0 3.0 0.00 0.00 0.00 91 1014.5
20260905142554 53 1 0.0 3.0 0.00 0.00 0.00 91 1014.4
20260905142053 53 358 1.0 3.0 0.00 0.00 0.00 91 1014.4
20260905141601 53 275 0.0 2.0 0.00 0.00 0.00 91 1014.4
20260905141057 53 275 1.0 2.0 0.00 0.00 0.00 91 1014.4
20260905140553 53 275 0.0 3.0 0.00 0.00 0.00 91 1014.4
20260905140100 53 275 0.0 3.0 0.00 0.00 0.00 91 1014.4
20260905135552 53 299 0.0 2.0 0.00 0.00 0.00 91 1014.4
20260905135051 53 299 0.0 2.0 0.00 0.00 0.00 91 1014.3
20260905134551 53 299 0.0 2.0 0.00 0.00 0.00 91 1014.3
20260905134049 53 299 0.0 1.0 0.00 0.00 0.00 91 1014.3
20260905133550 53 299 0.0 2.0 0.00 0.00 0.00 91 1014.3
20260905133049 53 299 0.0 2.0 0.00 0.00 0.00 91 1014.3
20260905132549 53 299 0.0 2.0 0.00 0.00 0.00 91 1014.4
20260905132052 53 299 0.0 2.0 0.00 0.00 0.00 91 1014.4
20260905131559 53 299 0.0 2.0 0.00 0.00 0.00 91 1014.4
20260905131049 53 299 0.0 1.0 0.00 0.00 0.00 91 1014.4
20260905130550 53 299 0.0 1.0 0.00 0.00 0.00 91 1014.4
20260905130047 53 299 0.0 2.0 0.00 0.00 0.00 91 1014.4
20260905125547 53 299 0.0 2.0 0.00 0.00 0.00 91 1014.5
20260905125047 53 4 0.0 2.0 0.00 0.00 0.00 91 1014.5
20260905124546 53 4 0.0 3.0 0.00 0.00 0.00 91 1014.3
20260905124045 54 3 1.0 4.0 0.00 0.00 0.00 91 1014.1
20260905123545 54 6 2.0 4.0 0.00 0.00 0.00 91 1014.1
20260905123043 54 25 1.0 3.0 0.00 0.00 0.00 91 1014.1
20260905122545 54 311 0.0 1.0 0.00 0.00 0.00 91 1014.1
20260905122043 54 311 0.0 0.0 0.00 0.00 0.00 91 1014.2
20260905121543 54 311 0.0 2.0 0.00 0.00 0.00 91 1014.2
20260905121042 54 311 1.0 2.0 0.00 0.00 0.00 91 1014.1
20260905120542 54 310 0.0 2.0 0.00 0.00 0.00 91 1014.1
20260905120042 54 310 0.0 2.0 0.00 0.00 0.00 91 1014.0
20260905115541 54 311 0.0 3.0 0.00 0.00 0.00 91 1014.0
20260905115041 54 311 0.0 3.0 0.00 0.00 0.00 91 1014.0
20260905114548 54 250 0.0 1.0 0.00 0.00 0.00 91 1014.1
20260905114044 54 250 0.0 2.0 0.00 0.00 0.00 91 1014.0
20260905113641 54 250 0.0 2.0 0.00 0.00 0.00 91 1014.0
20260905113040 54 251 0.0 5.0 0.00 0.00 0.00 91 1014.0
20260905112539 54 251 1.0 5.0 0.00 0.00 0.00 91 1014.0
20260905112038 54 42 0.0 2.0 0.00 0.00 0.00 91 1014.0
20260905111543 54 42 0.0 2.0 0.00 0.00 0.00 91 1013.9
20260905111039 54 42 0.0 1.0 0.00 0.00 0.00 91 1013.9
20260905110538 54 42 0.0 2.0 0.00 0.00 0.00 91 1013.9
20260905110038 54 42 0.0 2.0 0.00 0.00 0.00 91 1013.7
20260905105537 54 42 0.0 2.0 0.00 0.00 0.00 91 1013.7
20260905105037 54 42 0.0 3.0 0.00 0.00 0.00 91 1013.7
20260905104540 54 43 0.0 3.0 0.00 0.00 0.00 91 1013.8
20260905104037 54 19 0.0 2.0 0.00 0.00 0.00 91 1013.7
20260905103540 54 22 0.0 4.0 0.00 0.00 0.00 91 1013.8
20260905103039 54 23 2.0 4.0 0.00 0.00 0.00 91 1013.7
20260905102536 54 356 0.0 3.0 0.00 0.00 0.00 91 1013.7
20260905102035 54 356 0.0 2.0 0.00 0.00 0.00 91 1013.7
20260905101537 54 356 0.0 2.0 0.00 0.00 0.00 91 1013.7